Change the Weather History Date:

Monday, May 19, 2014

  Actual Average Record
Temperature  
Mean Temperature 67 °F 63 °F  
Max Temperature 76 °F 73 °F 93 °F (1975)
Min Temperature 58 °F 53 °F 35 °F (1888)
Degree Days  
Heating Degree Days 0 4  
Month to date heating degree days 137 113  
Since 1 July heating degree days 6787 6152  
Cooling Degree Days 2 2  
Month to date cooling degree days 20 26  
Year to date cooling degree days 32 40  
Growing Degree Days 16 (Base 50)    
Moisture  
Dew Point 53 °F    
Average Humidity 58    
Maximum Humidity 67    
Minimum Humidity 49    
Precipitation  
Precipitation T in 0.15 in 1.14 in (1937)
Month to date precipitation 2.67 2.94  
Year to date precipitation 10.42 11.38  
Snow  
Snow 0.00 in 0.00 in - ()
Month to date snowfall T 0.0  
Since 1 July snowfall 48.3 35.3  
Snow Depth 0.00 in    
Sea Level Pressure  
Sea Level Pressure 29.84 in    
Wind  
Wind Speed 14 mph (SSE)    
Max Wind Speed 29 mph    
Max Gust Speed 37 mph    
Visibility 10 miles    
Events Rain    
T = Trace of Precipitation, MM = Missing Value Source: NWS Daily Summary

Daily Weather History Graph

Daily Weather History Graph

Search for Another Location

Airport or City:

Trip Planner

Search our weather history database for the weather conditions in past years. The results will help you decide how hot, cold, wet, or windy it might be!

Date:

Astronomy

May. 19, 2014 Rise Set
Actual Time 5:51 AM CDT 8:31 PM CDT
Civil Twilight 5:19 AM CDT 9:03 PM CDT
Nautical Twilight 4:39 AM CDT 9:43 PM CDT
Astronomical Twilight 3:54 AM CDT 10:29 PM CDT
Moon 12:18 AM CDT (5/19) 10:51 AM CDT (5/19)
Length of Visible Light 15h 43m
Length of Day
14h 39m
Waning Gibbous, 71% of the Moon is Illuminated
May 19
Waning Gibbous
May 21
Last Quarter
May 28
New
Jun 5
First Quarter
Jun 12
Full

Hourly Weather History & Observations

Time (CDT) Temp. Dew Point Humidity Pressure Visibility Wind Dir Wind Speed Gust Speed Precip Events Conditions
12:54 AM 61.0 °F 43.0 °F 52% 30.02 in 10.0 mi SSE 11.5 mph - N/A   Overcast
1:54 AM 61.0 °F 42.1 °F 50% 30.01 in 10.0 mi SE 12.7 mph - N/A   Overcast
2:54 AM 60.1 °F 41.0 °F 49% 30.00 in 10.0 mi SE 11.5 mph - 0.00 in   Overcast
3:54 AM 59.0 °F 41.0 °F 51% 29.99 in 10.0 mi SE 9.2 mph - N/A   Overcast
4:54 AM 59.0 °F 42.1 °F 53% 29.98 in 10.0 mi SE 12.7 mph 23.0 mph N/A   Overcast
5:54 AM 59.0 °F 44.1 °F 58% 29.96 in 10.0 mi SSE 16.1 mph 23.0 mph N/A   Overcast
6:54 AM 57.9 °F 46.0 °F 65% 29.94 in 10.0 mi SE 16.1 mph - N/A   Mostly Cloudy
8:54 AM 63.0 °F 51.1 °F 65% 29.91 in 10.0 mi SSE 19.6 mph 25.3 mph N/A   Overcast
9:54 AM 64.9 °F 53.1 °F 65% 29.88 in 10.0 mi SSE 17.3 mph 28.8 mph N/A   Overcast
10:54 AM 66.0 °F 53.1 °F 63% 29.87 in 10.0 mi South 17.3 mph 31.1 mph N/A   Overcast
11:07 AM 64.9 °F 54.0 °F 68% 29.87 in 10.0 mi South 19.6 mph 29.9 mph 0.00 in Rain Light Rain
11:54 AM 70.0 °F 55.9 °F 61% 29.83 in 10.0 mi South 24.2 mph 32.2 mph 0.00 in   Mostly Cloudy
12:35 PM 72.0 °F 57.0 °F 59% 29.80 in 10.0 mi South 20.7 mph 38.0 mph N/A   Mostly Cloudy
12:54 PM 73.0 °F 57.9 °F 59% 29.79 in 9.0 mi South 20.7 mph 29.9 mph N/A   Mostly Cloudy
1:54 PM 72.0 °F 57.9 °F 61% 29.76 in 10.0 mi South 26.5 mph 35.7 mph N/A   Overcast
2:54 PM 73.0 °F 59.0 °F 61% 29.75 in 10.0 mi South 23.0 mph 31.1 mph N/A   Overcast
3:54 PM 73.9 °F 59.0 °F 59% 29.74 in 10.0 mi South 20.7 mph 28.8 mph N/A   Overcast
4:54 PM 73.9 °F 59.0 °F 59% 29.72 in 9.0 mi South 15.0 mph 28.8 mph N/A   Overcast
5:54 PM 73.9 °F 59.0 °F 59% 29.71 in 10.0 mi SSE 13.8 mph - N/A   Overcast
6:54 PM 75.0 °F 60.1 °F 60% 29.70 in 10.0 mi SSE 8.1 mph - N/A   Overcast
7:54 PM 75.0 °F 60.1 °F 60% 29.73 in 10.0 mi ESE 3.5 mph - N/A   Overcast
8:54 PM 73.9 °F 59.0 °F 59% 29.73 in 10.0 mi ESE 6.9 mph - N/A   Overcast
9:54 PM 73.9 °F 57.9 °F 57% 29.75 in 10.0 mi ESE 8.1 mph - N/A   Overcast
10:54 PM 73.0 °F 59.0 °F 61% 29.75 in 10.0 mi SE 6.9 mph - N/A   Overcast
11:54 PM 70.0 °F 57.9 °F 65% 29.75 in 10.0 mi SE 6.9 mph - N/A   Scattered Clouds